Location: ???????
(55.4362°N, 38.1183°E)
Time: 17:25:55
(UTC+00:00)

Cosmos 2333 Rocket - Pass Details

Date: 31 October 2021
Orbit: 837 x 865 km, 70.8° (Epoch: 04 December)

Event Time Altitude Azimuth Distance (km) Brightness Sun altitude
Rises 15:15:22 0° 186° (S) 3,394 5.5 -12.3°
Reaches altitude 10° 15:17:55 10° 179° (S) 2,467 4.7 -12.7°
Maximum altitude 15:23:10 41° 111° (ESE) 1,218 2.6 -13.4°
Enters shadow 15:28:17 11° 44° (NE) 2,419 4.1 -14.2°
